{"data":{"norad_id":66487,"epoch":"2026-05-25T01:36:00.402912Z","epoch_age_seconds":72485,"freshness":"FRESH","line1":"1 66487U 25263C   26145.06667133  .00016589  00000+0  61100-3 0  9998","line2":"2 66487  43.0013 279.0292 0000615 314.9426  45.1376 15.27580143 30584","mean_motion":15.27580143,"eccentricity":6.15e-5,"inclination_deg":43.0013,"raan_deg":279.0292,"arg_perigee_deg":314.9426,"mean_anomaly_deg":45.1376,"bstar":0.000611,"rev_number":3058,"period_min":94.266739889142,"perigee_km":482.62670492767,"apogee_km":483.47063076481,"semimajor_km":6861.1856678462,"source":"CELESTRAK","updated_at":"2026-05-25T13:38:21.242008Z"}}